Weather History for Olathe, KS

Change the Weather History Date:

Friday, October 25, 2013

  Actual Average Record
Temperature  
Mean Temperature 42 °F 54 °F  
Max Temperature 55 °F 64 °F 90 °F (1939)
Min Temperature 29 °F 44 °F 28 °F (1962)
Degree Days  
Heating Degree Days 23 12  
Month to date heating degree days 250 199  
Since 1 July heating degree days 277 248  
Cooling Degree Days 0 0  
Month to date cooling degree days 31 27  
Year to date cooling degree days 1360 1348  
Moisture  
Dew Point 25 °F    
Average Humidity 56    
Maximum Humidity 85    
Minimum Humidity 26    
Precipitation  
Precipitation 0.00 in 0.10 in 1.17 in (1986)
Month to date precipitation 1.06 2.90  
Year to date precipitation 30.56 35.37  
Sea Level Pressure  
Sea Level Pressure 30.37 in    
Wind  
Wind Speed 7 mph (South)    
Max Wind Speed 18 mph    
Max Gust Speed 23 mph    
Visibility 10 miles    
Events      
T = Trace of Precipitation, MM = Missing Value Source: NWS Daily Summary

Daily Weather History Graph

Daily Weather History Graph

Search for Another Location

Airport:

Trip Planner

Search our weather history database for the weather conditions in past years. The results will help you decide how hot, cold, wet, or windy it might be!

Date:

Astronomy

Oct. 25, 2013 Rise Set
Actual Time 7:38 AM CDT 6:26 PM CDT
Civil Twilight 7:11 AM CDT 6:53 PM CDT
Nautical Twilight 6:40 AM CDT 7:24 PM CDT
Astronomical Twilight 6:09 AM CDT 7:55 PM CDT
Moon 11:47 PM CDT (10/25) 1:18 PM CDT (10/25)
Length of Visible Light 11h 42m
Length of Day
10h 47m
Waning Gibbous, 62% of the Moon is Illuminated
Oct 25
Waning Gibbous
Oct 26
Last Quarter
Nov 3
New
Nov 9
First Quarter
Nov 17
Full

Hourly Weather History & Observations

Time (CDT) Temp. Windchill Dew Point Humidity Pressure Visibility Wind Dir Wind Speed Gust Speed Precip Events Conditions
12:53 AM 32.0 °F - 27.0 °F 82% 30.45 in 10.0 mi Calm Calm - N/A   Clear
1:53 AM 32.0 °F - 28.0 °F 85% 30.46 in 10.0 mi Calm Calm - N/A   Clear
2:53 AM 34.0 °F - 25.0 °F 70% 30.46 in 10.0 mi Calm Calm - N/A   Clear
3:53 AM 30.9 °F - 24.1 °F 76% 30.46 in 10.0 mi Calm Calm - N/A   Clear
4:53 AM 30.9 °F - 26.1 °F 82% 30.47 in 10.0 mi Calm Calm - N/A   Clear
5:53 AM 30.0 °F - 25.0 °F 82% 30.48 in 10.0 mi Calm Calm - N/A   Clear
6:53 AM 30.0 °F 26.5 °F 25.0 °F 82% 30.48 in 10.0 mi South 3.5 mph - N/A   Clear
7:53 AM 30.0 °F - 25.0 °F 82% 30.48 in 10.0 mi Calm Calm - N/A   Clear
8:53 AM 34.0 °F 31.0 °F 27.0 °F 75% 30.49 in 10.0 mi South 3.5 mph - N/A   Clear
9:53 AM 41.0 °F 34.7 °F 28.0 °F 60% 30.49 in 10.0 mi South 10.4 mph 16.1 mph N/A   Clear
10:53 AM 46.0 °F 40.2 °F 26.1 °F 46% 30.47 in 10.0 mi SSW 12.7 mph - N/A   Clear
11:53 AM 48.9 °F - 25.0 °F 39% 30.45 in 10.0 mi South 12.7 mph - N/A   Clear
12:53 PM 51.1 °F - 23.0 °F 33% 30.42 in 10.0 mi SSW 12.7 mph 18.4 mph N/A   Clear
1:53 PM 53.1 °F - 21.9 °F 30% 30.38 in 10.0 mi SSW 10.4 mph - N/A   Clear
2:53 PM 54.0 °F - 23.0 °F 30% 30.34 in 10.0 mi South 12.7 mph - N/A   Clear
3:53 PM 55.0 °F - 21.9 °F 28% 30.31 in 10.0 mi SSW 11.5 mph - N/A   Clear
4:53 PM 54.0 °F - 23.0 °F 30% 30.27 in 10.0 mi SSW 11.5 mph - N/A   Clear
5:53 PM 53.1 °F - 23.0 °F 31% 30.25 in 10.0 mi South 10.4 mph - N/A   Clear
6:53 PM 46.0 °F 42.5 °F 25.0 °F 44% 30.24 in 10.0 mi South 6.9 mph - N/A   Clear
7:53 PM 46.9 °F - 25.0 °F 42% 30.22 in 10.0 mi South 9.2 mph - N/A   Clear
8:53 PM 46.0 °F 42.5 °F 25.0 °F 44% 30.20 in 10.0 mi South 6.9 mph - N/A   Clear
9:53 PM 44.1 °F 40.8 °F 26.1 °F 49% 30.20 in 10.0 mi SSW 5.8 mph - N/A   Clear
10:53 PM 46.0 °F 43.1 °F 28.0 °F 50% 30.19 in 10.0 mi SSW 5.8 mph - N/A   Overcast
11:53 PM 48.9 °F - 30.0 °F 48% 30.16 in 10.0 mi SW 9.2 mph 18.4 mph N/A   Mostly Cloudy